| time (UTC) | temp F | wind direction | speed MPH | gust MPH | rain 1hr in | rain 24hr in | rain mn in | humidity % | barometer mb |
| 20260504050015 | 46 | 168 | 0.0 | 0.0 | 0.00 | 0.00 | 0.00 | 71 | 1013.1 |
| 20260504045026 | 46 | 168 | 0.0 | 0.0 | 0.00 | 0.00 | 0.00 | 71 | 1013.2 |
| 20260504044020 | 44 | 155 | 0.0 | 0.0 | 0.00 | 0.00 | 0.00 | 79 | 1013.0 |
| 20260504041909 | 44 | 175 | 0.0 | 0.0 | 0.00 | 0.00 | 0.00 | 77 | 1013.0 |
| 20260504040839 | 44 | 175 | 0.0 | 0.0 | 0.00 | 0.00 | 0.00 | 79 | 1012.9 |
| 20260504035825 | 45 | 171 | 0.0 | 0.0 | 0.00 | 0.00 | 0.00 | 78 | 1012.9 |
| 20260504034817 | 45 | 171 | 0.0 | 0.0 | 0.00 | 0.00 | 0.00 | 74 | 1012.9 |
| 20260504033827 | 45 | 171 | 0.0 | 0.0 | 0.00 | 0.00 | 0.00 | 74 | 1013.0 |
| 20260504032844 | 46 | 171 | 0.0 | 0.0 | 0.00 | 0.00 | 0.00 | 75 | 1013.0 |
| 20260504031812 | 46 | 171 | 0.0 | 0.0 | 0.00 | 0.00 | 0.00 | 75 | 1013.0 |
| 20260504025658 | 48 | 177 | 0.0 | 0.0 | 0.00 | 0.00 | 0.00 | 68 | 1013.2 |
| 20260504024706 | 48 | 171 | 0.0 | 0.0 | 0.00 | 0.00 | 0.00 | 65 | 1013.1 |
| 20260504023632 | 49 | 171 | 0.0 | 0.0 | 0.00 | 0.00 | 0.00 | 58 | 1013.2 |
| 20260504021551 | 50 | 171 | 0.0 | 0.0 | 0.00 | 0.00 | 0.00 | 54 | 1013.2 |
| 20260504020523 | 51 | 171 | 0.0 | 0.0 | 0.00 | 0.00 | 0.00 | 53 | 1013.2 |
| 20260504015531 | 51 | 171 | 0.0 | 0.0 | 0.00 | 0.00 | 0.00 | 54 | 1013.2 |
| 20260504014548 | 52 | 175 | 0.0 | 0.0 | 0.00 | 0.00 | 0.00 | 52 | 1013.2 |
| 20260504013554 | 52 | 171 | 0.0 | 0.0 | 0.00 | 0.00 | 0.00 | 51 | 1013.1 |
| 20260504012536 | 52 | 175 | 0.0 | 1.0 | 0.00 | 0.00 | 0.00 | 49 | 1013.2 |
| 20260504010438 | 53 | 159 | 0.0 | 2.0 | 0.00 | 0.00 | 0.00 | 50 | 1013.1 |
| 20260504005443 | 53 | 170 | 0.0 | 0.0 | 0.00 | 0.00 | 0.00 | 48 | 1013.0 |
| 20260504004411 | 54 | 185 | 0.0 | 0.0 | 0.00 | 0.00 | 0.00 | 47 | 1013.0 |
| 20260504003429 | 55 | 158 | 0.0 | 0.0 | 0.00 | 0.00 | 0.00 | 45 | 1012.9 |
| 20260504002409 | 56 | 198 | 0.0 | 3.0 | 0.00 | 0.00 | 0.00 | 44 | 1012.8 |
| 20260504001408 | 56 | 195 | 1.0 | 4.0 | 0.00 | 0.00 | 0.00 | 43 | 1012.8 |
| 20260504000432 | 56 | 153 | 1.0 | 3.0 | 0.00 | 0.00 | 0.00 | 42 | 1012.8 |
| 20260503233123 | 57 | 168 | 1.0 | 5.0 | 0.00 | 0.00 | 0.00 | 41 | 1013.0 |
| 20260503232142 | 58 | 210 | 1.0 | 9.0 | 0.00 | 0.00 | 0.00 | 40 | 1013.0 |
| 20260503230017 | 59 | 164 | 6.0 | 12.0 | 0.00 | 0.00 | 0.00 | 40 | 1013.0 |
| 20260503225019 | 59 | 192 | 3.0 | 9.0 | 0.00 | 0.00 | 0.00 | 40 | 1013.1 |
| 20260503224018 | 59 | 184 | 4.0 | 11.0 | 0.00 | 0.00 | 0.00 | 39 | 1013.2 |
| 20260503223016 | 59 | 195 | 5.0 | 11.0 | 0.00 | 0.00 | 0.00 | 39 | 1013.2 |
| 20260503222025 | 58 | 188 | 3.0 | 14.0 | 0.00 | 0.00 | 0.00 | 40 | 1013.3 |
| 20260503215855 | 59 | 167 | 4.0 | 13.0 | 0.00 | 0.00 | 0.00 | 39 | 1013.3 |
| 20260503214853 | 59 | 158 | 4.0 | 13.0 | 0.00 | 0.00 | 0.00 | 39 | 1013.2 |
| 20260503211601 | 60 | 188 | 3.0 | 15.0 | 0.00 | 0.00 | 0.00 | 39 | 1013.2 |
| 20260503210615 | 58 | 201 | 7.0 | 15.0 | 0.00 | 0.00 | 0.00 | 38 | 1013.2 |
| 20260503205545 | 59 | 170 | 7.0 | 14.0 | 0.00 | 0.00 | 0.00 | 38 | 1013.3 |
| 20260503202333 | 60 | 208 | 4.0 | 15.0 | 0.00 | 0.00 | 0.00 | 37 | 1013.7 |
| 20260503201309 | 59 | 269 | 5.0 | 15.0 | 0.00 | 0.00 | 0.00 | 38 | 1013.8 |
| 20260503200308 | 59 | 175 | 4.0 | 20.0 | 0.00 | 0.00 | 0.00 | 41 | 1013.9 |
| 20260503195330 | 59 | 212 | 7.0 | 20.0 | 0.00 | 0.00 | 0.00 | 39 | 1014.1 |
| 20260503194331 | 58 | 153 | 5.0 | 15.0 | 0.00 | 0.00 | 0.00 | 39 | 1014.1 |
| 20260503193352 | 58 | 205 | 5.0 | 16.0 | 0.00 | 0.00 | 0.00 | 40 | 1014.3 |
| 20260503192400 | 58 | 158 | 7.0 | 16.0 | 0.00 | 0.00 | 0.00 | 39 | 1014.2 |
| 20260503191335 | 58 | 195 | 5.0 | 17.0 | 0.00 | 0.00 | 0.00 | 40 | 1014.4 |
| 20260503190350 | 58 | 151 | 6.0 | 17.0 | 0.00 | 0.00 | 0.00 | 42 | 1014.7 |
| 20260503184156 | 58 | 260 | 5.0 | 18.0 | 0.00 | 0.00 | 0.00 | 40 | 1014.9 |
| 20260503183124 | 57 | 172 | 3.0 | 17.0 | 0.00 | 0.00 | 0.00 | 42 | 1015.0 |
| 20260503182141 | 57 | 227 | 6.0 | 17.0 | 0.00 | 0.00 | 0.00 | 43 | 1015.1 |
| 20260503181202 | 57 | 221 | 4.0 | 15.0 | 0.00 | 0.00 | 0.00 | 42 | 1015.2 |
| 20260503180206 | 56 | 227 | 6.0 | 15.0 | 0.00 | 0.00 | 0.00 | 43 | 1015.3 |
| 20260503175220 | 57 | 205 | 3.0 | 16.0 | 0.00 | 0.00 | 0.00 | 41 | 1015.5 |
| 20260503174225 | 57 | 212 | 6.0 | 16.0 | 0.00 | 0.00 | 0.00 | 40 | 1015.6 |
| 20260503173210 | 56 | 185 | 4.0 | 15.0 | 0.00 | 0.00 | 0.00 | 45 | 1015.5 |
| 20260503172231 | 56 | 202 | 5.0 | 13.0 | 0.00 | 0.00 | 0.00 | 41 | 1015.8 |
| 20260503150720 | 51 | 209 | 5.0 | 12.0 | 0.00 | 0.00 | 0.00 | 49 | 1016.9 |
| 20260503131235 | 46 | 215 | 2.0 | 6.0 | 0.00 | 0.00 | 0.00 | 68 | 1017.2 |
| 20260503120135 | 40 | 191 | 2.0 | 6.0 | 0.00 | 0.00 | 0.00 | 86 | 1017.0 |
| 20260503090327 | 37 | 162 | 0.0 | 0.0 | 0.00 | 0.00 | 0.00 | 91 | 1015.7 |
| 20260503081214 | 37 | 165 | 0.0 | 0.0 | 0.00 | 0.00 | 0.00 | 91 | 1015.6 |
| 20260503080225 | 37 | 188 | 0.0 | 0.0 | 0.00 | 0.00 | 0.00 | 90 | 1015.5 |
| 20260503072146 | 38 | 189 | 0.0 | 0.0 | 0.00 | 0.00 | 0.00 | 86 | 1015.3 |
| 20260503071128 | 38 | 160 | 0.0 | 0.0 | 0.00 | 0.00 | 0.00 | 84 | 1015.2 |
| 20260503070142 | 38 | 171 | 0.0 | 3.0 | 0.00 | 0.00 | 0.00 | 84 | 1015.3 |